Regional Weather Roundup
Issued by NWS Jackson, KY

Home | Current Version | Previous Version | Text Only | Print | Product List | Glossary On
Versions: 1 2 3 4 5 6 7 8 9 10 11 12 13 14 15 16 17 18 19 20 21 22 23 24 25 26 27
000
ASUS43 KJKL 250810
RWRJKL

EAST KENTUCKY HOURLY WEATHER ROUNDUP
NATIONAL WEATHER SERVICE JACKSON KY
300 AM EST SAT NOV 25 2017

NOTE: "FAIR" INDICATES FEW OR NO CLOUDS BELOW 12,000 FEET WITH
NO SIGNIFICANT WEATHER AND/OR OBSTRUCTIONS TO VISIBILITY.

* THESE REPORTS ARE NOT UNDER NWS QUALITY CONTROL AND MAY NOT
  REPORT WEATHER SUCH AS PRECIPITATION AND FOG.

KYZ079-080-083-085-087-088-110-112-115-119-120-250900
...EASTERN KENTUCKY...

CITY           SKY/WX    TMP DP  RH WIND       PRES   REMARKS
JACKSON        CLEAR     49  35  58 SW6       29.84S
LONDON         CLEAR     42  35  76 SW3       29.88R
SOMERSET*      PTCLDY    43  36  75 CALM      29.89S
MONTICELLO*    CLEAR     50  40  68 W15       29.90S
WILLIAMSBURG*  SUNNY     48  39  71 SW5       29.89S
MIDDLESBORO*   CLEAR     35  34  99 CALM      29.92R
HARLAN APT*    SUNNY     41  34  75 CALM      29.90S
PIKE CO APT*     N/A     48  33  56 CALM      29.85R
BIG SANDY APT* SUNNY     50  32  50 S6        29.83F
MOREHEAD APT*  MOSUNNY   52  34  50 SW12G20   29.83S
$$

KYZ035-036-041-042-044-050-067-078-099-250900
...CENTRAL KENTUCKY...

CITY           SKY/WX    TMP DP  RH WIND       PRES   REMARKS
MT STERLING*   MOCLDY    48  36  61 W14       29.83F
DANVILLE*      MOCLDY    50  36  57 SW12G17   29.85S
LEXINGTON      PTCLDY    51  34  52 SW16      29.81F
FRANKFORT      PTCLDY    51  29  42 SW13G22   29.79R
LOUISVILLE     CLOUDY    53  27  36 SW12      29.80R
LEBANON*         N/A     50  32  50 S14G20    29.83S
GLASGOW*       PTCLDY    51  32  47 SW9G16    29.86F
BOWLING GREEN  CLOUDY    49  30  48 SW6       29.87S
$$

KYZ091>093-OHZ055-061-077-WVZ005-015-034-035-042-250900
...SOUTHERN OHIO/WEST VIRGINIA...

CITY           SKY/WX    TMP DP  RH WIND       PRES   REMARKS
COVINGTON      CLOUDY    50  30  46 SW14G21   29.74R
COLUMBUS       CLOUDY    49  29  46 S9        29.71S
DAYTON         CLOUDY    49  29  46 SW16      29.70R
WILMINGTON     MOCLDY    48  31  51 SW17      29.73R
HUNTINGTON     CLEAR     49  31  49 SW5       29.81R
CHARLESTON     PTCLDY    37  27  67 CALM      29.82R
PINEVILLE*     CLEAR     31  28  90 MISG      29.92S
BECKLEY        CLEAR     47  30  51 SW13      29.85F
BLUEFIELD      CLOUDY    43  28  55 W7        29.88F
LOGAN CO APT*    N/A     48  30  49 CALM      29.84R
$$

VAZ002-007-008-TNZ017-027-036-066-071-250900
...SOUTHWEST VIRGINIA/EAST TENNESSEE...

CITY           SKY/WX    TMP DP  RH WIND       PRES   REMARKS
WISE*          CLEAR     46  37  71 SW15      29.90S
JONESVILLE*      N/A     32  30  93 CALM      29.95S
ABINGDON*      CLEAR     36  32  84 CALM      29.93S
BRISTOL        PTCLDY    32  32 100 CALM      29.94R
MORRISTOWN*    SUNNY     37  36  93 CALM      29.92S
SEVIERVILLE*   SUNNY     34  34 100 CALM      29.93S
KNOXVILLE      CLEAR     43  40  89 SW9       29.92S
LAFOLLETTE*    SUNNY     37  36  93 CALM      29.95R
OAK RIDGE      CLEAR     42  39  89 CALM      29.95R
CROSSVILLE     CLEAR     45  38  76 SW5       29.92S
NASHVILLE      PTCLDY    52  28  39 SW7       29.91S
$$

...KEY TO REMARKS...
VSB - VISIBILITY IN MILES
WCI - WIND CHILL INDEX
HX  - HEAT INDEX

$$




USA.gov is the U.S. government's official web portal to all federal, state and local government web resources and services.